Location: Podia
(1.5569°N, 32.3469°E)
Time: 01:05:59
(UTC+00:00)

ARIANE 5 DEB (SYLDA) - Pass Details

Date: 01 June 2020
Orbit: 274 x 12235 km, 6.8° (Epoch: 13 July)

Event Time Altitude Azimuth Distance (km) Brightness Sun altitude
Rises 16:52:14 0° 262° (W) 6,756 9.4 -14.1°
Reaches altitude 10° 16:59:12 10° 255° (WSW) 3,976 7.9 -15.7°
Maximum altitude 17:06:26 30° 195° (SSW) 1,236 4.5 -17.3°
Enters shadow 17:07:42 25° 161° (SSE) 1,179 4.1 -17.6°
